Location: Andrew T Morrow School
(40.8058°N, 73.1769°W)
Time: 05:24:29
(UTC+00:00)

Daily predictions for brighter satellites

Satellite Brightness Start Highest point End
(mag) Time Altitude Azimuth Time Altitude Azimuth Time Altitude Azimuth
Sich 1 Rocket 3.9 00:49:46 10° NNW 00:54:09 70° W 00:58:29 10° S
SPOT 3 Rocket 4.4 00:54:24 10° SE 00:59:04 36° ENE 01:03:46 10° N
IRS-1A Rocket 4.4 00:54:22 10° SSE 01:00:14 76° ENE 01:06:03 10° N
SJ-6B 3.5 00:57:55 10° S 01:01:58 59° W 01:06:00 10° NNW
Cosmos 1470 3.7 00:58:55 10° NNE 01:02:32 33° ENE 01:06:07 10° SE
USA 186 3.6 01:00:48 10° SSW 01:03:08 26° W 01:05:39 10° NW
SL-16 R/B 2.5 01:02:47 10° S 01:08:12 48° ESE 01:13:37 10° NE
Cosmos 2360 Rocket 3.4 01:05:43 10° SSE 01:09:51 21° E 01:13:59 10° NE
Cosmos 2322 Rocket 2.7 01:05:45 10° S 01:10:59 39° ESE 01:16:14 10° NE
BREEZE-M DEB (TANK) 2.2 01:10:54 10° SW 01:13:08 44° SE 01:16:05 10° ENE
Cosmos 1315 Rocket 3.6 01:10:10 10° N 01:14:03 38° ENE 01:17:48 10° SE
SL-24 DEB 4.4 01:09:58 10° S 01:14:42 83° W 01:19:29 10° N
Cosmos 676 Rocket 4.2 01:11:24 10° NNW 01:16:42 60° ENE 01:21:53 10° SSE
Ariane Rocket 3.1 01:12:21 10° S 01:17:26 81° WSW 01:22:34 10° NNW
Cosmos 1954 Rocket 4.2 01:12:15 10° NNW 01:17:33 63° ENE 01:22:44 10° SSE
Cosmos 2227 4.3 01:12:09 10° NNW 01:17:46 68° ENE 01:23:15 11° SSE
ATLAS 2A CENTAUR R/B 4.4 01:06:03 10° SW 01:17:58 19° S 01:23:10 11° SE
OBJECT-B 3.0 01:16:46 10° SSW 01:19:27 24° W 01:22:09 10° NW
Meteor 1-21 4.3 01:14:13 10° S 01:19:48 63° E 01:25:22 10° NNE
Aureole 2 Rocket 4.3 01:20:23 10° WNW 01:21:52 15° WSW 01:23:19 10° SW
Okean 1 Rocket 3.2 01:18:24 10° N 01:22:43 58° E 01:27:01 10° SSE
Cosmos 1934 Rocket 4.2 01:17:15 10° N 01:23:21 76° W 01:29:30 10° S
USA 238 DEB 4.0 01:17:13 10° SW 01:23:42 70° NW 01:30:32 10° NNE
Resurs 1-3 4.0 01:19:27 10° S 01:23:47 65° WSW 01:28:10 10° NNW
USA 238 4.0 01:17:19 10° SW 01:23:48 70° NW 01:30:38 10° NNE
USA 215 4.4 01:20:07 10° E 01:24:22 18° ESE 01:28:36 10° SSE
Cosmos 1726 2.1 01:22:53 10° N 01:26:30 60° E 01:29:47 12° SSE
Cosmos 1980 Rocket 4.2 01:24:21 10° WSW 01:29:23 32° WNW 01:34:25 10° N
Cosmos 220 Rocket 4.3 01:25:15 10° SSW 01:29:32 70° WNW 01:33:49 10° NNE
Cosmos 1378 Rocket 3.8 01:25:34 10° SSW 01:29:52 73° W 01:34:16 10° N
BREEZE-M DEB (TANK) 2.1 01:28:18 10° SSW 01:30:22 27° SE 01:32:54 10° ENE
USA 81 4.4 01:25:28 10° N 01:30:34 47° E 01:35:02 13° SSE
Okean 2 3.5 01:28:30 10° S 01:32:35 79° W 01:36:41 10° N
Cosmos 1758 3.7 01:28:45 10° N 01:32:36 46° E 01:35:36 15° SSE
Cosmos 1140 Rocket 4.4 01:27:38 10° NNW 01:32:40 48° WSW 01:37:40 10° S
CENTAUR R/B 3.1 01:29:06 10° SW 01:34:49 61° NW 01:41:41 10° NNE
Lacrosse 5 rocket 2.1 01:35:44 10° S 01:38:45 23° SE 01:41:42 10° ENE
Cosmos 1707 2.7 01:39:34 10° S 01:43:25 89° W 01:47:20 10° N
Cosmos 292 Rocket 3.8 01:38:55 10° SSW 01:43:45 84° WNW 01:48:37 10° NNE
Meteor 2-10 4.5 01:40:48 10° NNW 01:45:46 59° W 01:50:49 10° S
Cosmos 1727 Rocket 4.0 01:40:56 10° S 01:47:12 71° E 01:53:28 10° NNE
Cosmos 1844 Rocket 3.8 01:43:45 10° N 01:48:46 31° ENE 01:52:38 15° ESE
NOSS 8 (A) 4.2 01:45:39 10° SW 01:49:19 88° WNW 01:52:20 10° NE
Meteor 2-20 Rocket 4.4 01:44:10 10° S 01:50:14 69° E 01:56:18 10° NNE
SPOT 5 3.8 01:50:49 18° SE 01:54:02 36° ENE 01:58:34 10° N
Cosmos 1605 Rocket 4.3 01:48:14 10° NNW 01:54:37 69° W 02:00:53 10° S
FALCON 9 DEB 3.0 01:55:25 10° SW 01:58:51 88° SE 02:02:17 10° NE
Cosmos 1953 2.9 01:56:30 10° N 02:00:22 41° ENE 02:02:13 25° SE
Resurs 01 Rocket 2.5 01:56:27 10° S 02:00:39 45° W 02:04:54 10° NNW
Cosmos 1452 Rocket 3.6 01:55:43 10° SSW 02:00:59 83° WNW 02:06:19 10° NNE
Cosmos 2263 Rocket 3.1 01:56:28 10° NW 02:01:52 45° WSW 02:06:51 12° S
Cosmos 1025 Rocket 3.8 02:00:33 24° SE 02:02:28 35° E 02:06:28 10° NNE
CARTOSAT-1 3.7 02:02:17 24° SSE 02:04:44 60° ENE 02:08:59 10° N
Terra 2.9 02:02:47 20° ESE 02:05:10 31° ENE 02:09:20 10° N
USA 245 3.9 02:03:19 20° SSE 02:06:29 90° ESE 02:12:01 10° NNW
In-Cosmos 22 4.2 02:05:20 10° SSW 02:10:37 77° W 02:15:56 10° N
SPOT 1/Viking Rocket 3.6 02:06:53 18° S 02:10:47 74° WSW 02:15:57 10° NNW
Lacrosse 5 1.9 02:05:49 10° NW 02:10:52 71° SW 02:13:41 26° SSE
Cosmos 1626 2.7 02:10:37 31° SE 02:11:38 39° E 02:15:05 10° NNE
Cosmos 1975 Rocket 3.0 02:09:40 16° S 02:13:04 89° W 02:17:29 10° N
Cosmos 1850 Rocket 4.0 02:08:33 10° NNW 02:13:52 74° ENE 02:16:49 26° SSE
Cosmos 2333 Rocket 2.9 02:14:46 25° SSE 02:17:14 35° ESE 02:22:24 10° NE
Cosmos 1461 3.7 02:14:17 10° NNW 02:18:16 40° NE 02:19:59 26° ESE
Geosat 4.0 02:15:36 26° SE 02:18:25 74° ENE 02:23:27 10° NNW
Spot 2 Rocket 3.5 02:18:25 24° S 02:21:32 84° WSW 02:26:38 10° NNW
KORONAS-FOTON 3.9 02:21:34 21° SSW 02:23:58 71° W 02:27:45 10° N
Cosmos 1459 Rocket 3.9 02:18:32 10° N 02:24:36 74° E 02:28:09 26° SSE
Cosmos 1331 Rocket 3.9 02:22:28 17° S 02:26:31 74° ESE 02:31:47 10° NNE
ERS-1 Rocket 3.0 02:24:36 29° SSE 02:27:11 74° ENE 02:32:13 10° N
Cosmos 1000 Rocket 4.4 02:24:19 17° S 02:29:12 88° E 02:35:22 10° N
Cosmos 2219 Rocket 2.7 02:29:35 30° SSE 02:31:33 39° ESE 02:36:47 10° NE
ATLAS CENTAUR R/B 3.2 02:28:59 10° N 02:32:38 25° NE 02:34:48 18° E
Cosmos 1844 3.9 02:27:53 10° NNW 02:33:23 56° ENE 02:35:57 30° SE
ARIANE 5 R/B 2.9 02:36:13 29° S 02:38:20 61° W 02:42:47 10° NNW
Meteor 1-24 Rocket 4.4 02:37:25 30° ESE 02:38:45 34° E 02:43:35 10° NNE
Cosmos 2061 Rocket 4.1 02:35:10 10° N 02:41:34 64° E 02:44:36 32° SSE
Meteor 2-11 Rocket 4.4 02:36:19 10° N 02:42:29 90° E 02:45:42 30° S
Cosmos 1674 3.9 02:41:23 17° SW 02:43:49 37° WNW 02:47:18 10° N
Aureole 1 Rocket 4.1 02:37:54 10° NNW 02:43:56 86° ENE 02:47:53 30° SSE
CZ-4B DEB 4.4 02:44:40 58° ENE 02:44:40 58° ENE 02:47:48 10° N
Cosmos 1302 Rocket 4.2 02:43:00 36° SSE 02:44:48 53° ESE 02:49:55 10° NNE
ATLAS 3B R/B 2.5 02:39:16 13° SSW 02:45:05 66° ESE 02:51:43 10° NE
Cosmos 1741 Rocket 4.3 02:40:54 10° NNW 02:46:05 60° WSW 02:48:30 31° S
Cosmos 2237 Rocket 4.0 02:47:42 14° E 02:47:42 14° E 02:50:07 10° ENE
Celestis-02/Orion 38 4.5 02:49:22 39° SSE 02:51:19 90° WSW 02:56:29 10° NNW
Cosmos 2123 Rocket 3.9 02:48:01 28° S 02:51:32 82° E 02:57:53 10° N
SL-16 R/B 4.3 02:47:51 10° WSW 02:52:32 26° NW 02:57:13 10° N
Cosmos 2360 Rocket 2.9 02:47:53 10° SW 02:53:24 53° WNW 02:58:55 10° NNE
Cosmos 2322 Rocket 4.0 02:50:03 10° WSW 02:55:05 31° WNW 03:00:07 10° N
Cosmos 1300 3.0 02:51:27 10° N 02:55:11 50° E 02:55:23 49° E
H-2A R/B 3.3 02:53:41 10° NNE 02:57:47 89° E 02:58:45 52° SSW
Cosmos 1544 Rocket 3.8 02:54:07 10° NNW 02:58:34 66° W 02:59:55 42° SSW
SL-24 R/B 4.3 02:57:51 10° N 03:02:42 74° E 03:03:58 49° SSE
Cosmos 1455 Rocket 4.4 02:59:22 10° NNW 03:03:24 34° W 03:05:24 23° SW
Cosmos 2233 Rocket 4.2 02:58:37 10° N 03:04:41 56° E 03:06:48 38° SE
Cosmos 1346 Rocket 3.9 03:05:41 31° ENE 03:05:41 31° ENE 03:08:49 10° NNE
USA 215 3.1 03:01:27 10° NE 03:08:01 77° SE 03:14:33 10° SW
COSMOS 2428 2.7 03:06:54 41° S 03:08:52 66° ESE 03:14:33 10° NNE
Cosmos 1340 3.2 03:10:39 44° WSW 03:11:24 53° WNW 03:15:06 10° N
Cosmos 2322 3.7 03:08:15 26° SSW 03:11:36 81° WNW 03:17:17 10° NNE
BREEZE-M DEB (TANK) 3.9 03:10:00 10° WNW 03:11:14 24° WNW 03:11:14 24° WNW
NOSS 0 Rocket 4.5 03:13:16 36° ESE 03:14:01 37° ESE 03:19:40 10° NE
Cosmos 405 3.2 03:13:51 10° NNW 03:17:02 63° WNW 03:17:02 63° WNW
Lacrosse 5 rocket 2.6 03:14:18 10° WSW 03:17:41 34° NW 03:21:01 10° NNE
Cosmos 2278 Rocket 3.5 03:16:42 10° N 03:21:39 30° ENE 03:23:55 23° E
Cosmos 2016 Rocket 4.5 03:21:25 10° NNW 03:27:19 52° W 03:29:58 31° SSW
Cosmos 1536 Rocket 4.3 03:26:46 35° SW 03:28:08 47° W 03:32:27 10° N
Cosmos 968 Rocket 3.4 03:27:31 10° NNW 03:32:38 70° ENE 03:33:30 58° SE
Cosmos 1844 Rocket 3.6 03:27:29 10° NW 03:32:42 38° WSW 03:34:17 32° SW
Cosmos 1992 Rocket 4.0 03:32:57 57° SE 03:33:26 60° ESE 03:38:35 10° NNE
Meteor 2-5 Rocket 4.0 03:32:04 34° SW 03:34:21 60° WNW 03:39:53 10° N
Cosmos 1900 4.4 03:30:16 10° NW 03:35:04 59° WSW 03:35:33 56° SW
USA 267 4.2 03:34:23 12° E 03:40:01 44° NNE 03:46:09 10° NW
GEOS 3 Rocket 3.8 03:39:18 46° ESE 03:40:50 68° NE 03:46:10 10° NNW
Terra 3.2 03:41:40 25° WSW 03:42:52 27° W 03:46:56 10° NW
Cosmos 2228 3.0 03:47:27 10° N 03:51:51 80° W 03:51:51 80° W
Cosmos 1980 3.6 03:56:11 60° SE 03:56:43 63° ESE 04:02:20 10° NNE
Okean 1-7 Rocket 4.5 03:58:30 37° ENE 03:58:30 37° ENE 04:02:09 10° NNE
Cosmos 2333 Rocket 3.6 03:56:42 12° WSW 04:01:28 34° WNW 04:06:40 10° N
BREEZE-M DEB (TANK) 3.2 03:52:27 10° WSW 04:03:35 80° NNW 04:06:53 10° NE
DNEPR-1 R/B 4.2 03:59:58 10° NW 04:03:30 44° W 04:03:30 44° W
Iridium 2 4.4 04:07:27 52° NNW 04:07:27 52° NNW 04:10:29 10° N
ATLAS CENTAUR R/B 2.5 04:07:28 10° NW 04:10:56 37° W 04:10:56 37° W
SL-8 R/B 4.5 04:10:14 10° WNW 04:13:41 40° W 04:13:41 40° W
Cosmos 2219 Rocket 3.8 04:11:14 13° WSW 04:15:33 31° WNW 04:20:33 10° N
Cosmos 2058 Rocket 3.2 04:13:13 10° N 04:17:22 69° NE 04:17:22 69° NE
Cosmos 389 Rocket 4.2 04:16:36 10° NNW 04:18:37 27° NW 04:18:37 27° NW
Cosmos 1503 Rocket 3.9 04:14:23 10° NNW 04:19:47 80° ENE 04:20:18 71° SE
Meteor 2-10 Rocket 4.2 04:17:12 10° NNW 04:21:54 39° W 04:22:19 38° WSW
Cosmos 2034 Rocket 4.2 04:16:17 10° N 04:22:23 58° E 04:23:38 49° ESE
Cosmos 1455 3.0 04:19:12 10° NNW 04:22:07 48° NNW 04:22:07 48° NNW
SL-16 R/B 3.1 04:25:54 34° E 04:25:54 34° E 04:30:46 10° NE
Cosmos 1726 Rocket 4.1 04:22:50 10° NNW 04:26:54 50° W 04:26:54 50° W
ATLAS CENTAUR R/B 2.7 04:26:30 64° S 04:27:19 76° SE 04:38:27 10° NE
Meteor 1-4 Rocket 4.4 04:25:10 10° NNE 04:27:14 24° NE 04:27:14 24° NE
Spot 4 4.3 04:28:51 47° W 04:28:51 47° W 04:33:27 10° NNW
GP-B 4.3 04:25:43 10° NNE 04:29:21 31° ENE 04:29:21 31° ENE
Cosmos 2237 Rocket 2.2 04:29:30 58° SW 04:30:32 74° WNW 04:36:11 10° NNE
NOSS 3-1 (C) 4.3 04:31:32 29° E 04:31:32 29° E 04:35:46 10° NE
Cosmos 1867 3.6 04:29:18 10° NW 04:34:44 64° WSW 04:34:48 64° WSW
ATLAS 3B R/B 4.4 04:30:41 10° W 04:36:17 29° NW 04:42:03 10° NNE
Thor Agena Rocket 3.7 04:32:55 10° NNE 04:38:07 59° ESE 04:38:12 59° ESE
ALOS 2 3.0 04:41:22 55° WNW 04:41:22 55° WNW 04:45:13 10° NNW
Tsikada Rocket 4.0 04:43:11 57° SE 04:44:13 67° E 04:50:20 10° NNE
SJ 16-02 3.0 04:43:33 10° N 04:47:14 26° ENE 04:47:52 25° ENE
Meteor 1-21 Rocket 4.4 04:46:49 55° WSW 04:47:40 63° WNW 04:53:19 10° N
SL-4 R/B 2.9 04:52:00 43° N 04:52:00 43° N 04:54:56 10° NE
Meteor 1-11 4.2 04:59:16 64° SE 04:59:48 68° E 05:05:21 10° NNE
Cosmos 2297 4.4 04:58:28 10° NNW 05:03:55 48° ENE 05:05:42 36° ESE
Cosmos 2278 Rocket 2.8 05:00:33 10° NW 05:05:45 40° WSW 05:05:45 40° WSW
Cosmos 1777 Rocket 3.8 05:05:25 10° NNW 05:10:44 88° WSW 05:11:01 80° S
Cosmos 1626 Rocket 4.1 05:11:52 52° WNW 05:11:52 52° WNW 05:15:58 10° N
PSLV R/B 3.7 05:10:23 10° NNE 05:14:21 75° N 05:14:21 75° N
Cosmos 1174 4.5 05:15:05 73° S 05:15:35 81° ESE 05:20:37 10° NNE
Cosmos 1892 4.0 05:18:18 34° ENE 05:18:18 34° ENE 05:21:09 10° NNE
Cosmos 1602 Rocket 3.8 05:18:27 62° WNW 05:18:27 62° WNW 05:22:36 10° N
NOSS 2-3 (D) 4.3 05:21:22 44° ENE 05:21:22 44° ENE 05:24:51 10° NE
USA 267 3.2 05:21:42 55° S 05:22:51 63° SW 05:29:21 10° NW
Helios 1A 4.4 05:22:48 28° E 05:23:24 29° ENE 05:27:02 10° N
Cosmos 1758 Rocket 3.6 05:25:43 77° N 05:25:43 77° N 05:29:51 10° N
In-Cosmos 22 Rocket 4.4 05:30:08 53° SE 05:30:59 59° E 05:36:24 10° NNE
NOSS 2-3 (C) 3.6 05:37:47 71° NE 05:37:47 71° NE 05:41:57 10° NE
EO 1 Del DPAF 3.9 05:34:09 10° N 05:37:03 50° NNW 05:37:03 50° NNW
Aureole 3 3.8 05:34:38 10° NNW 05:37:46 59° NW 05:37:46 59° NW
SL-24 R/B 4.4 05:40:29 69° SW 05:40:50 71° W 05:46:33 10° NNW
Cosmos 1943 4.1 05:41:25 33° ESE 05:42:13 34° ESE 05:47:16 10° NE
Cosmos 1634 Rocket 4.0 05:38:10 10° NNW 05:44:27 70° W 05:45:48 54° SSW
Cosmos 2279 Rocket 4.0 05:39:41 10° N 05:45:58 76° E 05:47:46 48° SSE
Cosmos 1603 4.4 05:46:50 38° SE 05:47:45 41° ESE 05:53:01 10° NE
Cosmos 405 Rocket 3.6 05:48:53 41° ENE 05:48:53 41° ENE 05:51:48 10° NNE
Cosmos-2242 3.1 05:44:17 10° NNW 05:48:21 68° WNW 05:48:21 68° WNW
Cosmos 1943 Rocket 2.0 05:43:33 10° NNW 05:49:06 86° ENE 05:50:15 58° SSE
Cosmos 1825 3.0 05:52:57 43° ENE 05:52:57 43° ENE 05:56:07 10° NNE
YAOGAN 11 4.1 05:54:06 73° ESE 05:54:20 76° ENE 05:58:48 10° N
Resurs 1-4 Rocket 2.9 05:55:01 10° NNE 06:00:03 42° E 06:01:20 36° SE
Exosat Rocket 4.0 06:01:44 47° SSW 06:03:51 83° ESE 06:09:27 10° NNE
CZ-2D R/B 2.6 06:04:12 10° NNE 06:09:15 49° E 06:10:33 40° SE
SL-16 R/B 3.3 06:07:45 27° W 06:09:46 34° WNW 06:14:55 10° N
USA 229 DEB 3.6 06:08:35 45° SW 06:10:45 78° NW 06:17:33 10° NNE
USA 229 3.5 06:08:42 45° SW 06:10:50 79° NW 06:17:39 10° NNE
MOZ.5/SAFIR/RUBIN 5/SL-8 3.7 06:13:18 63° SSE 06:14:05 87° ENE 06:18:51 10° NNW
Cosmos 468 Rocket 3.9 06:16:01 58° SW 06:16:57 75° WNW 06:22:11 10° NNE
ADEOS II 3.6 06:12:48 10° NE 06:17:15 27° E 06:19:31 20° SE
Cosmos 2221 3.1 06:13:45 10° N 06:17:57 50° E 06:18:55 41° ESE
Nadezhda 4 Rocket 4.0 06:17:10 43° S 06:19:20 76° E 06:25:27 10° N
Cosmos 1408 3.7 06:20:25 35° NW 06:20:25 35° NW 06:23:19 10° N
X-37B 1.8 06:21:11 42° NNE 06:21:11 42° NNE 06:23:47 10° ENE
NOSS 3-1 (C) 4.2 06:18:54 27° W 06:21:18 41° NW 06:27:09 10° NNE
ARGOS Delta rocket 4.2 06:15:53 10° NNE 06:21:23 71° E 06:23:00 46° S
Cosmos 2098 Rocket 3.8 06:20:29 42° SSE 06:22:28 69° E 06:27:24 10° NNE
SJ 16-02 2.8 06:22:02 10° NW 06:24:50 25° WNW 06:24:50 25° WNW
SeaSat 1 4.5 06:25:15 10° ENE 06:28:23 17° ESE 06:30:26 13° SE
Cosmos 2369 Rocket 2.1 06:23:06 10° NNW 06:28:52 88° WSW 06:31:22 36° SSE
SL-16 R/B 2.6 06:26:24 26° SSE 06:30:02 74° ENE 06:36:13 10° N
Cosmos 1869 4.4 06:26:30 10° NNW 06:29:42 32° WNW 06:29:42 32° WNW
NOSS 3-1 (A) 3.5 06:28:32 38° WSW 06:30:27 59° NW 06:36:32 10° NNE
SL-4 R/B 4.5 06:28:54 10° NW 06:31:28 17° NNW 06:33:57 10° NNE
Cosmos 1606 3.6 06:31:15 10° N 06:34:56 44° E 06:35:59 35° ESE
Cosmos 1656 Rocket 4.0 06:29:39 10° NNW 06:35:20 67° ENE 06:39:36 18° SE
Cosmos 2263 4.2 06:30:22 10° NNW 06:36:04 78° ENE 06:39:38 23° SSE
IDEFIX/ARIANE 42P 4.5 06:32:39 10° NE 06:36:38 22° E 06:40:08 12° SE
Cosmos 1763 Rocket 3.9 06:35:28 40° WSW 06:36:43 50° WNW 06:41:42 10° N
Cosmos 1437 Rocket 2.5 06:33:37 10° NNW 06:37:31 81° W 06:37:37 80° SW
Cosmos 1242 Rocket 3.1 06:36:41 10° N 06:40:13 53° ENE 06:40:52 45° ESE
Cosmos 2058 3.0 06:40:52 55° W 06:41:09 56° W 06:45:11 10° N
USA 290 3.8 06:42:13 27° ESE 06:42:16 27° ESE 06:45:04 10° NE
ATLAS 5 CENTAUR R/B 2.2 06:48:01 34° SE 06:48:36 36° ESE 06:52:27 10° NE
DELTA 2 R/B (1) 3.6 06:48:29 42° SW 06:50:06 60° SSE 06:55:34 10° E
Cosmos 1932 4.5 06:43:55 10° NNW 06:50:10 82° ENE 06:56:21 10° SE
Aureole 3 Rocket 3.3 06:49:53 10° N 06:53:45 71° E 06:56:17 28° SSE
Cosmos 1437 3.5 06:52:09 10° N 06:54:47 38° ENE 06:55:00 37° E
ADEOS Rocket 3.7 06:48:28 10° SSE 06:55:51 67° ENE 07:02:38 10° N
Cosmos 1092 Rocket 3.9 06:54:17 32° S 06:57:20 89° E 07:03:30 10° N
Helios 1A 4.5 06:59:24 22° W 06:59:24 22° W 07:02:13 10° NW
USA 307 3.2 06:58:46 44° S 06:59:34 51° SE 07:03:41 10° ENE
Cosmos 1633 2.3 07:03:06 65° SSW 07:03:33 82° W 07:07:05 10° N
Landsat 4 3.9 07:01:10 10° NNE 07:04:56 66° ESE 07:06:02 42° SSE
Helios 1B rocket 2.7 07:01:09 10° N 07:05:10 55° WNW 07:06:08 43° WSW
Meteor 2-3 Rocket 4.4 07:01:46 19° SSE 07:05:34 48° E 07:10:55 10° NNE
IRS-1D 3.8 07:04:24 10° NNE 07:09:31 64° ESE 07:12:21 26° S
Cosmos 1842 Rocket 4.0 07:05:34 10° NNW 07:09:39 42° W 07:10:28 37° WSW
USA 308 2.9 07:13:55 41° SSW 07:15:15 70° SE 07:19:30 10° NE
Cosmos 1428 Rocket 4.5 07:13:10 27° SSW 07:16:54 81° W 07:23:14 10° N
NOSS 2-2 (D) 2.8 07:17:58 49° SW 07:18:48 90° NW 07:22:21 10° NE
UNK 4.3 07:21:01 32° SW 07:22:12 37° W 07:26:30 10° NNW
Cosmos 841 Rocket 4.1 07:19:57 27° WSW 07:22:13 42° WNW 07:27:07 10° N
Cosmos 1782 4.4 07:20:29 10° NNE 07:24:08 33° ENE 07:27:46 10° SE
Cosmos 540 Rocket 4.4 07:22:33 23° WSW 07:24:49 34° WNW 07:29:28 10° N
CZ-4C R/B 4.3 07:22:06 10° SE 07:25:21 38° ENE 07:28:36 10° N
Cosmos 921 Rocket 3.6 07:24:20 30° WSW 07:25:46 41° WNW 07:29:46 10° N
Cosmos 1898 Rocket 4.5 07:21:47 10° NW 07:26:10 28° W 07:27:17 25° WSW
Cosmos 1943 4.2 07:23:13 21° WSW 07:26:12 34° WNW 07:31:19 10° N
MINOTAUR 4 R/B 4.3 07:28:57 38° SW 07:29:48 48° W 07:33:15 10° NNW
Lacrosse 4 Rocket 2.2 07:25:58 10° NNW 07:29:57 50° ENE 07:33:52 10° SE
Cosmos 1937 Rocket 4.2 07:26:04 10° NW 07:30:53 36° W 07:33:00 26° SW
Cosmos 1943 Rocket 4.1 07:30:12 10° WNW 07:31:43 12° W 07:31:43 12° W
USA 305 2.9 07:32:36 28° WSW 07:34:44 75° NW 07:38:59 10° NE
Resurs 1-4 Rocket 3.5 07:35:20 10° NNW 07:39:36 25° WNW 07:42:25 16° WSW
Cosmos 1933 3.3 07:37:33 10° N 07:41:38 78° W 07:44:44 17° S
Cosmos 1271 Rocket 4.3 07:42:21 10° N 07:45:48 34° ENE 07:49:15 10° SE
Cosmos 2151 3.6 07:45:23 24° SW 07:47:22 40° WNW 07:51:21 10° N
IRIDIUM 104 4.3 07:42:19 10° N 07:47:34 82° W 07:52:28 12° S
Cosmos 2150 Rocket 4.3 07:42:56 10° NNW 07:48:08 71° ENE 07:53:22 10° SSE
Cosmos 1809 Rocket 4.4 07:43:32 16° S 07:48:30 81° W 07:54:43 10° N
CZ-2D R/B 3.7 07:45:06 10° NNW 07:48:56 21° WNW 07:51:52 14° WSW
Cosmos 1553 Rocket 4.0 07:49:42 10° N 07:56:01 76° W 08:02:11 10° S
IRIDIUM 114 4.3 07:51:31 10° N 07:56:42 67° W 08:01:36 11° S
USA 306 3.4 07:53:56 18° WSW 07:56:56 52° NW 08:01:06 10° NE
ADEOS II 2.9 07:52:10 10° N 07:56:58 37° WNW 08:00:27 17° SW
X-37B 2.0 07:54:42 10° WNW 07:57:43 38° N 08:00:43 10° ENE
ERBS 3.4 07:56:45 18° S 07:58:37 33° SE 08:01:35 10° ENE
S3M 4.1 07:54:16 10° N 08:00:26 79° E 08:06:39 10° S
CZ-2D R/B 4.4 07:57:10 10° NNE 08:01:13 45° E 08:05:09 10° S
CZ-2C R/B 4.0 07:56:56 10° NNE 08:01:21 32° E 08:05:38 10° SSE
Cosmos 1125 Rocket 3.6 07:59:04 10° NNW 08:04:21 81° ENE 08:09:37 10° SSE
SeaSat 1 2.6 08:01:22 10° NNE 08:06:14 62° WNW 08:10:13 15° SW
ARIANE 5 R/B 2.5 08:03:33 10° NNE 08:08:34 80° ESE 08:13:34 10° S
Cosmos 2369 Rocket 4.1 08:10:26 10° W 08:11:58 11° W 08:13:05 10° WSW
SL-08 R/B 3.5 08:07:42 10° SSE 08:12:19 74° ENE 08:17:02 10° N
Cosmos 1328 Rocket 3.5 08:09:38 10° N 08:14:01 90° SE 08:18:23 10° S
SL-16 R/B 4.0 08:11:30 13° WSW 08:14:11 17° W 08:18:01 10° NW
Cosmos 1862 3.6 08:10:48 10° S 08:14:47 68° E 08:18:49 10° NNE
IDEFIX/ARIANE 42P 3.1 08:11:25 10° N 08:16:25 46° WNW 08:20:56 12° SW
USA 290 4.5 08:15:00 10° W 08:16:44 14° WNW 08:18:33 10° NNW
Lacrosse 5 rocket 4.2 08:16:52 10° N 08:19:05 15° NNE 08:21:21 10° ENE
Meteor 2-21 Rocket 4.5 08:14:13 10° SSW 08:20:17 71° W 08:26:28 10° N
USA 281 3.3 08:14:35 10° S 08:20:58 55° WSW 08:27:25 10° NNW
IRS-1C 4.3 08:16:41 10° N 08:21:57 62° WNW 08:27:12 10° SSW
CZ-4B R/B 3.6 08:17:59 10° N 08:23:17 78° WNW 08:28:28 10° SSW
CZ-4C R/B 2.4 08:19:44 10° SSW 08:24:17 56° ESE 08:29:43 10° NE
GPS 2-04 Rocket1 3.3 08:23:33 12° WSW 08:26:46 37° S 08:30:15 10° ESE
FALCON 9 DEB 3.1 08:25:59 10° NW 08:29:24 86° NE 08:32:46 10° SE
ATLAS 5 CENTAUR R/B 3.2 08:30:07 10° W 08:33:18 22° NW 08:36:48 10° N
DELTA 2 R/B (1) 3.6 08:30:52 10° W 08:36:25 80° S 08:41:59 10° E
USA 307 4.4 08:35:56 10° W 08:39:41 30° NNW 08:43:28 10° NE
Cosmos 1833 Rocket 3.4 08:35:37 10° S 08:41:03 52° ESE 08:46:32 10° NNE
Spot 4 Rocket 4.1 08:35:57 10° NNE 08:41:07 85° WNW 08:46:15 10° SSW
Cosmos 2266 Rocket 4.1 08:35:45 10° SSW 08:41:46 57° W 08:47:44 10° N
Cosmos 1515 Rocket 3.6 08:37:19 10° N 08:41:46 82° W 08:46:11 10° S
Cosmos 883 Rocket 4.5 08:35:55 10° N 08:42:04 77° W 08:48:09 10° S
Cosmos 1408 Rocket 3.8 08:40:17 10° SSW 08:44:38 55° W 08:49:01 10° N
Cosmos 1151 Rocket 4.0 08:42:32 10° NNW 08:46:13 29° W 08:49:52 10° SSW
